Time,TemperatureF,DewpointF,PressureIn,WindDirection,WindDirectionDegrees,WindSpeedMPH,WindSpeedGustMPH,Humidity,HourlyPrecipIn,Conditions,Clouds,dailyrainin,SoftwareType,DateUTC
2013-04-14 00:03:00,57.0,40.0,29.82,North,-999,-999.0,-999.0,52,-99.99,,,-99.99,,2013-04-14 05:03:00,
2013-04-14 00:12:00,57.0,40.0,29.82,North,-999,-999.0,-999.0,53,-99.99,,,-99.99,,2013-04-14 05:12:00,
2013-04-14 00:22:00,57.0,40.0,29.82,North,-999,-999.0,-999.0,53,-99.99,,,-99.99,,2013-04-14 05:22:00,
2013-04-14 00:32:00,56.0,40.0,29.82,North,-999,-999.0,-999.0,55,-99.99,,,-99.99,,2013-04-14 05:32:00,
2013-04-14 00:42:00,56.0,41.0,29.82,North,-999,-999.0,-999.0,56,-99.99,,,-99.99,,2013-04-14 05:42:00,
2013-04-14 00:52:00,56.0,41.0,29.82,North,-999,-999.0,-999.0,56,-99.99,,,-99.99,,2013-04-14 05:52:00,
2013-04-14 01:02:00,56.0,41.0,29.82,North,-999,-999.0,-999.0,57,-99.99,,,-99.99,,2013-04-14 06:02:00,
2013-04-14 01:12:00,56.0,42.0,29.82,North,-999,-999.0,-999.0,58,-99.99,,,-99.99,,2013-04-14 06:12:00,
2013-04-14 01:22:00,56.0,42.0,29.82,North,-999,-999.0,-999.0,58,-99.99,,,-99.99,,2013-04-14 06:22:00,
2013-04-14 01:32:00,56.0,42.0,29.82,North,-999,-999.0,-999.0,58,-99.99,,,-99.99,,2013-04-14 06:32:00,
2013-04-14 01:42:00,56.0,42.0,29.81,North,-999,-999.0,-999.0,58,-99.99,,,-99.99,,2013-04-14 06:42:00,
2013-04-14 01:52:00,56.0,42.0,29.81,North,-999,-999.0,-999.0,58,-99.99,,,-99.99,,2013-04-14 06:52:00,
2013-04-14 02:00:00,55.0,42.0,29.80,North,-999,-999.0,-999.0,62,-99.99,,,-99.99,,2013-04-14 07:00:00,
2013-04-14 02:02:00,56.0,42.0,29.80,North,-999,-999.0,-999.0,59,-99.99,,,-99.99,,2013-04-14 07:02:00,
2013-04-14 02:12:00,56.0,42.0,29.80,North,-999,-999.0,-999.0,59,-99.99,,,-99.99,,2013-04-14 07:12:00,
2013-04-14 02:22:00,56.0,42.0,29.80,North,-999,-999.0,-999.0,59,-99.99,,,-99.99,,2013-04-14 07:22:00,
2013-04-14 02:32:00,55.0,42.0,29.80,North,-999,-999.0,-999.0,61,-99.99,,,-99.99,,2013-04-14 07:32:00,
2013-04-14 02:42:00,55.0,42.0,29.80,North,-999,-999.0,-999.0,62,-99.99,,,-99.99,,2013-04-14 07:42:00,
2013-04-14 02:52:00,55.0,42.0,29.80,North,-999,-999.0,-999.0,62,-99.99,,,-99.99,,2013-04-14 07:52:00,
2013-04-14 03:12:00,55.0,43.0,29.78,North,-999,-999.0,-999.0,63,-99.99,,,-99.99,,2013-04-14 08:12:00,
2013-04-14 03:22:00,55.0,43.0,29.78,North,-999,-999.0,-999.0,63,-99.99,,,-99.99,,2013-04-14 08:22:00,
2013-04-14 03:32:00,55.0,43.0,29.77,North,-999,-999.0,-999.0,64,-99.99,,,-99.99,,2013-04-14 08:32:00,
2013-04-14 03:42:00,56.0,44.0,29.76,North,-999,-999.0,-999.0,64,-99.99,,,-99.99,,2013-04-14 08:42:00,
2013-04-14 03:52:00,56.0,44.0,29.76,North,-999,-999.0,-999.0,64,-99.99,,,-99.99,,2013-04-14 08:52:00,
2013-04-14 04:03:00,56.0,44.0,29.75,North,-999,-999.0,-999.0,63,-99.99,,,-99.99,,2013-04-14 09:03:00,
2013-04-14 04:12:00,56.0,44.0,29.75,North,-999,-999.0,-999.0,64,-99.99,,,-99.99,,2013-04-14 09:12:00,
2013-04-14 04:22:00,56.0,44.0,29.75,North,-999,-999.0,-999.0,64,-99.99,,,-99.99,,2013-04-14 09:22:00,
2013-04-14 04:33:00,56.0,44.0,29.75,North,-999,-999.0,-999.0,64,-99.99,,,-99.99,,2013-04-14 09:33:00,
2013-04-14 04:42:00,56.0,44.0,29.74,North,-999,-999.0,-999.0,64,-99.99,,,-99.99,,2013-04-14 09:42:00,
2013-04-14 04:53:00,56.0,44.0,29.74,North,-999,-999.0,-999.0,64,-99.99,,,-99.99,,2013-04-14 09:53:00,
2013-04-14 05:03:00,56.0,44.0,29.73,North,-999,-999.0,-999.0,64,-99.99,,,-99.99,,2013-04-14 10:03:00,
2013-04-14 05:12:00,56.0,44.0,29.73,North,-999,-999.0,-999.0,64,-99.99,,,-99.99,,2013-04-14 10:12:00,
2013-04-14 05:23:00,56.0,44.0,29.73,North,-999,-999.0,-999.0,64,-99.99,,,-99.99,,2013-04-14 10:23:00,
2013-04-14 05:33:00,56.0,44.0,29.72,North,-999,-999.0,-999.0,64,-99.99,,,-99.99,,2013-04-14 10:33:00,
2013-04-14 05:42:00,55.0,44.0,29.71,North,-999,-999.0,-999.0,65,-99.99,,,-99.99,,2013-04-14 10:42:00,
2013-04-14 05:52:00,55.0,44.0,29.71,North,-999,-999.0,-999.0,65,-99.99,,,-99.99,,2013-04-14 10:52:00,
2013-04-14 06:02:00,55.0,44.0,29.70,North,-999,-999.0,-999.0,65,-99.99,,,-99.99,,2013-04-14 11:02:00,
2013-04-14 06:12:00,55.0,44.0,29.70,North,-999,-999.0,-999.0,65,-99.99,,,-99.99,,2013-04-14 11:12:00,
2013-04-14 06:22:00,55.0,44.0,29.70,North,-999,-999.0,-999.0,65,-99.99,,,-99.99,,2013-04-14 11:22:00,
2013-04-14 06:32:00,56.0,44.0,29.70,North,-999,-999.0,-999.0,65,-99.99,,,-99.99,,2013-04-14 11:32:00,
2013-04-14 06:42:00,56.0,44.0,29.70,North,-999,-999.0,-999.0,64,-99.99,,,-99.99,,2013-04-14 11:42:00,
2013-04-14 06:52:00,56.0,44.0,29.70,North,-999,-999.0,-999.0,64,-99.99,,,-99.99,,2013-04-14 11:52:00,
2013-04-14 07:02:00,57.0,44.0,29.71,North,-999,-999.0,-999.0,63,-99.99,,,-99.99,,2013-04-14 12:02:00,
2013-04-14 07:12:00,57.0,44.0,29.71,North,-999,-999.0,-999.0,61,-99.99,,,-99.99,,2013-04-14 12:12:00,
2013-04-14 07:22:00,57.0,44.0,29.71,North,-999,-999.0,-999.0,61,-99.99,,,-99.99,,2013-04-14 12:22:00,
2013-04-14 07:32:00,58.0,44.0,29.72,North,-999,-999.0,-999.0,61,-99.99,,,-99.99,,2013-04-14 12:32:00,
2013-04-14 07:42:00,58.0,44.0,29.71,North,-999,-999.0,-999.0,61,-99.99,,,-99.99,,2013-04-14 12:42:00,
2013-04-14 07:52:00,58.0,44.0,29.71,North,-999,-999.0,-999.0,61,-99.99,,,-99.99,,2013-04-14 12:52:00,
2013-04-14 08:02:00,58.0,44.0,29.72,North,-999,-999.0,-999.0,60,-99.99,,,-99.99,,2013-04-14 13:02:00,
2013-04-14 08:12:00,58.0,44.0,29.71,North,-999,-999.0,-999.0,60,-99.99,,,-99.99,,2013-04-14 13:12:00,
2013-04-14 08:22:00,58.0,44.0,29.71,North,-999,-999.0,-999.0,60,-99.99,,,-99.99,,2013-04-14 13:22:00,
2013-04-14 08:32:00,59.0,44.0,29.72,North,-999,-999.0,-999.0,58,-99.99,,,-99.99,,2013-04-14 13:32:00,
2013-04-14 08:42:00,60.0,44.0,29.72,North,-999,-999.0,-999.0,57,-99.99,,,-99.99,,2013-04-14 13:42:00,
2013-04-14 08:52:00,60.0,44.0,29.72,North,-999,-999.0,-999.0,57,-99.99,,,-99.99,,2013-04-14 13:52:00,
2013-04-14 09:02:00,61.0,45.0,29.72,North,-999,-999.0,-999.0,55,-99.99,,,-99.99,,2013-04-14 14:02:00,
2013-04-14 09:12:00,62.0,45.0,29.71,North,-999,-999.0,-999.0,53,-99.99,,,-99.99,,2013-04-14 14:12:00,
2013-04-14 09:22:00,62.0,45.0,29.71,North,-999,-999.0,-999.0,53,-99.99,,,-99.99,,2013-04-14 14:22:00,
2013-04-14 09:32:00,63.0,45.0,29.71,North,-999,-999.0,-999.0,51,-99.99,,,-99.99,,2013-04-14 14:32:00,
2013-04-14 09:42:00,64.0,45.0,29.71,North,-999,-999.0,-999.0,51,-99.99,,,-99.99,,2013-04-14 14:42:00,
2013-04-14 09:52:00,64.0,45.0,29.71,North,-999,-999.0,-999.0,51,-99.99,,,-99.99,,2013-04-14 14:52:00,
2013-04-14 10:02:00,66.0,45.0,29.70,North,-999,-999.0,-999.0,46,-99.99,,,-99.99,,2013-04-14 15:02:00,
2013-04-14 10:12:00,67.0,45.0,29.70,North,-999,-999.0,-999.0,45,-99.99,,,-99.99,,2013-04-14 15:12:00,
2013-04-14 10:22:00,67.0,45.0,29.70,North,-999,-999.0,-999.0,45,-99.99,,,-99.99,,2013-04-14 15:22:00,
2013-04-14 10:33:00,68.0,45.0,29.70,North,-999,-999.0,-999.0,44,-99.99,,,-99.99,,2013-04-14 15:33:00,
2013-04-14 10:43:00,68.0,46.0,29.70,North,-999,-999.0,-999.0,44,-99.99,,,-99.99,,2013-04-14 15:43:00,
2013-04-14 10:53:00,68.0,46.0,29.70,North,-999,-999.0,-999.0,44,-99.99,,,-99.99,,2013-04-14 15:53:00,
2013-04-14 11:04:00,69.0,46.0,29.70,North,-999,-999.0,-999.0,44,-99.99,,,-99.99,,2013-04-14 16:04:00,
2013-04-14 11:13:00,69.0,46.0,29.69,North,-999,-999.0,-999.0,43,-99.99,,,-99.99,,2013-04-14 16:13:00,
2013-04-14 11:22:00,69.0,46.0,29.69,North,-999,-999.0,-999.0,43,-99.99,,,-99.99,,2013-04-14 16:22:00,
2013-04-14 11:33:00,71.0,46.0,29.69,North,-999,-999.0,-999.0,41,-99.99,,,-99.99,,2013-04-14 16:33:00,
2013-04-14 11:43:00,71.0,45.0,29.69,North,-999,-999.0,-999.0,39,-99.99,,,-99.99,,2013-04-14 16:43:00,
2013-04-14 11:53:00,71.0,45.0,29.69,North,-999,-999.0,-999.0,39,-99.99,,,-99.99,,2013-04-14 16:53:00,
2013-04-14 12:02:00,72.0,45.0,29.68,North,-999,-999.0,-999.0,38,-99.99,,,-99.99,,2013-04-14 17:02:00,
2013-04-14 12:13:00,72.0,44.0,29.67,North,-999,-999.0,-999.0,36,-99.99,,,-99.99,,2013-04-14 17:13:00,
2013-04-14 12:22:00,72.0,44.0,29.67,North,-999,-999.0,-999.0,36,-99.99,,,-99.99,,2013-04-14 17:22:00,
2013-04-14 12:32:00,74.0,43.0,29.66,North,-999,-999.0,-999.0,34,-99.99,,,-99.99,,2013-04-14 17:32:00,
2013-04-14 12:42:00,74.0,43.0,29.66,North,-999,-999.0,-999.0,33,-99.99,,,-99.99,,2013-04-14 17:42:00,
2013-04-14 12:52:00,74.0,43.0,29.66,North,-999,-999.0,-999.0,33,-99.99,,,-99.99,,2013-04-14 17:52:00,
2013-04-14 13:02:00,75.0,43.0,29.65,North,-999,-999.0,-999.0,32,-99.99,,,-99.99,,2013-04-14 18:02:00,
2013-04-14 13:12:00,76.0,41.0,29.64,North,-999,-999.0,-999.0,29,-99.99,,,-99.99,,2013-04-14 18:12:00,
2013-04-14 13:22:00,76.0,41.0,29.64,North,-999,-999.0,-999.0,29,-99.99,,,-99.99,,2013-04-14 18:22:00,
2013-04-14 13:32:00,76.0,42.0,29.63,North,-999,-999.0,-999.0,29,-99.99,,,-99.99,,2013-04-14 18:32:00,
2013-04-14 13:43:00,77.0,43.0,29.63,North,-999,-999.0,-999.0,30,-99.99,,,-99.99,,2013-04-14 18:43:00,
2013-04-14 13:52:00,77.0,43.0,29.63,North,-999,-999.0,-999.0,30,-99.99,,,-99.99,,2013-04-14 18:52:00,
2013-04-14 14:03:00,76.0,44.0,29.61,North,-999,-999.0,-999.0,32,-99.99,,,-99.99,,2013-04-14 19:03:00,
2013-04-14 14:12:00,76.0,44.0,29.61,North,-999,-999.0,-999.0,31,-99.99,,,-99.99,,2013-04-14 19:12:00,
2013-04-14 14:22:00,76.0,44.0,29.61,North,-999,-999.0,-999.0,31,-99.99,,,-99.99,,2013-04-14 19:22:00,
2013-04-14 14:32:00,78.0,42.0,29.60,North,-999,-999.0,-999.0,28,-99.99,,,-99.99,,2013-04-14 19:32:00,
2013-04-14 14:42:00,78.0,42.0,29.60,North,-999,-999.0,-999.0,28,-99.99,,,-99.99,,2013-04-14 19:42:00,
2013-04-14 14:52:00,78.0,42.0,29.60,North,-999,-999.0,-999.0,28,-99.99,,,-99.99,,2013-04-14 19:52:00,
2013-04-14 15:02:00,78.0,40.0,29.59,North,-999,-999.0,-999.0,25,-99.99,,,-99.99,,2013-04-14 20:02:00,
2013-04-14 15:13:00,78.0,41.0,29.58,North,-999,-999.0,-999.0,26,-99.99,,,-99.99,,2013-04-14 20:13:00,
2013-04-14 15:22:00,78.0,41.0,29.58,North,-999,-999.0,-999.0,26,-99.99,,,-99.99,,2013-04-14 20:22:00,
2013-04-14 15:33:00,78.0,41.0,29.58,North,-999,-999.0,-999.0,27,-99.99,,,-99.99,,2013-04-14 20:33:00,
2013-04-14 15:43:00,78.0,42.0,29.57,North,-999,-999.0,-999.0,27,-99.99,,,-99.99,,2013-04-14 20:43:00,
2013-04-14 15:52:00,78.0,42.0,29.57,North,-999,-999.0,-999.0,27,-99.99,,,-99.99,,2013-04-14 20:52:00,
2013-04-14 16:02:00,78.0,43.0,29.56,North,-999,-999.0,-999.0,29,-99.99,,,-99.99,,2013-04-14 21:02:00,
2013-04-14 16:12:00,78.0,42.0,29.56,North,-999,-999.0,-999.0,27,-99.99,,,-99.99,,2013-04-14 21:12:00,
2013-04-14 16:23:00,78.0,42.0,29.56,North,-999,-999.0,-999.0,27,-99.99,,,-99.99,,2013-04-14 21:23:00,
2013-04-14 16:33:00,79.0,41.0,29.54,North,-999,-999.0,-999.0,26,-99.99,,,-99.99,,2013-04-14 21:33:00,
2013-04-14 16:43:00,79.0,43.0,29.54,North,-999,-999.0,-999.0,28,-99.99,,,-99.99,,2013-04-14 21:43:00,
2013-04-14 16:53:00,79.0,43.0,29.54,North,-999,-999.0,-999.0,28,-99.99,,,-99.99,,2013-04-14 21:53:00,
2013-04-14 17:03:00,79.0,43.0,29.53,North,-999,-999.0,-999.0,28,-99.99,,,-99.99,,2013-04-14 22:03:00,
2013-04-14 17:13:00,79.0,41.0,29.54,North,-999,-999.0,-999.0,26,-99.99,,,-99.99,,2013-04-14 22:13:00,
2013-04-14 17:23:00,79.0,41.0,29.54,North,-999,-999.0,-999.0,26,-99.99,,,-99.99,,2013-04-14 22:23:00,
2013-04-14 17:33:00,78.0,42.0,29.54,North,-999,-999.0,-999.0,28,-99.99,,,-99.99,,2013-04-14 22:33:00,
2013-04-14 17:43:00,78.0,43.0,29.54,North,-999,-999.0,-999.0,29,-99.99,,,-99.99,,2013-04-14 22:43:00,
2013-04-14 17:52:00,78.0,43.0,29.54,North,-999,-999.0,-999.0,29,-99.99,,,-99.99,,2013-04-14 22:52:00,
2013-04-14 18:02:00,78.0,43.0,29.54,North,-999,-999.0,-999.0,29,-99.99,,,-99.99,,2013-04-14 23:02:00,
2013-04-14 18:12:00,78.0,42.0,29.54,North,-999,-999.0,-999.0,28,-99.99,,,-99.99,,2013-04-14 23:12:00,
2013-04-14 18:22:00,78.0,42.0,29.54,North,-999,-999.0,-999.0,28,-99.99,,,-99.99,,2013-04-14 23:22:00,
2013-04-14 18:33:00,77.0,42.0,29.55,North,-999,-999.0,-999.0,29,-99.99,,,-99.99,,2013-04-14 23:33:00,
2013-04-14 18:43:00,76.0,42.0,29.54,North,-999,-999.0,-999.0,29,-99.99,,,-99.99,,2013-04-14 23:43:00,
2013-04-14 18:52:00,76.0,42.0,29.54,North,-999,-999.0,-999.0,29,-99.99,,,-99.99,,2013-04-14 23:52:00,
2013-04-14 19:02:00,76.0,43.0,29.55,North,-999,-999.0,-999.0,31,-99.99,,,-99.99,,2013-04-15 00:02:00,
2013-04-14 19:12:00,75.0,43.0,29.56,North,-999,-999.0,-999.0,32,-99.99,,,-99.99,,2013-04-15 00:12:00,
2013-04-14 19:23:00,75.0,43.0,29.56,North,-999,-999.0,-999.0,32,-99.99,,,-99.99,,2013-04-15 00:23:00,
2013-04-14 19:33:00,74.0,44.0,29.57,North,-999,-999.0,-999.0,34,-99.99,,,-99.99,,2013-04-15 00:33:00,
2013-04-14 19:42:00,74.0,44.0,29.57,North,-999,-999.0,-999.0,35,-99.99,,,-99.99,,2013-04-15 00:42:00,
2013-04-14 19:52:00,74.0,44.0,29.57,North,-999,-999.0,-999.0,35,-99.99,,,-99.99,,2013-04-15 00:52:00,
2013-04-14 20:02:00,73.0,46.0,29.57,North,-999,-999.0,-999.0,38,-99.99,,,-99.99,,2013-04-15 01:02:00,
2013-04-14 20:12:00,72.0,46.0,29.58,North,-999,-999.0,-999.0,39,-99.99,,,-99.99,,2013-04-15 01:12:00,
2013-04-14 20:23:00,72.0,46.0,29.58,North,-999,-999.0,-999.0,39,-99.99,,,-99.99,,2013-04-15 01:23:00,
2013-04-14 20:32:00,71.0,46.0,29.59,North,-999,-999.0,-999.0,42,-99.99,,,-99.99,,2013-04-15 01:32:00,
2013-04-14 20:42:00,70.0,47.0,29.59,North,-999,-999.0,-999.0,43,-99.99,,,-99.99,,2013-04-15 01:42:00,
2013-04-14 20:52:00,70.0,47.0,29.59,North,-999,-999.0,-999.0,43,-99.99,,,-99.99,,2013-04-15 01:52:00,
2013-04-14 21:03:00,69.0,48.0,29.61,North,-999,-999.0,-999.0,46,-99.99,,,-99.99,,2013-04-15 02:03:00,
2013-04-14 21:12:00,69.0,49.0,29.61,North,-999,-999.0,-999.0,48,-99.99,,,-99.99,,2013-04-15 02:12:00,
2013-04-14 21:22:00,69.0,49.0,29.61,North,-999,-999.0,-999.0,48,-99.99,,,-99.99,,2013-04-15 02:22:00,
2013-04-14 21:32:00,68.0,51.0,29.62,North,-999,-999.0,-999.0,55,-99.99,,,-99.99,,2013-04-15 02:32:00,
2013-04-14 21:42:00,67.0,51.0,29.62,North,-999,-999.0,-999.0,57,-99.99,,,-99.99,,2013-04-15 02:42:00,
2013-04-14 21:52:00,67.0,51.0,29.62,North,-999,-999.0,-999.0,57,-99.99,,,-99.99,,2013-04-15 02:52:00,
2013-04-14 22:03:00,66.0,52.0,29.63,North,-999,-999.0,-999.0,61,-99.99,,,-99.99,,2013-04-15 03:03:00,
2013-04-14 22:12:00,66.0,52.0,29.63,North,-999,-999.0,-999.0,62,-99.99,,,-99.99,,2013-04-15 03:12:00,
2013-04-14 22:22:00,66.0,52.0,29.63,North,-999,-999.0,-999.0,62,-99.99,,,-99.99,,2013-04-15 03:22:00,
2013-04-14 22:33:00,65.0,53.0,29.65,North,-999,-999.0,-999.0,64,-99.99,,,-99.99,,2013-04-15 03:33:00,
2013-04-14 22:43:00,65.0,53.0,29.66,North,-999,-999.0,-999.0,65,-99.99,,,-99.99,,2013-04-15 03:43:00,
2013-04-14 22:54:00,65.0,53.0,29.66,North,-999,-999.0,-999.0,65,-99.99,,,-99.99,,2013-04-15 03:54:00,
2013-04-14 23:03:00,65.0,53.0,29.67,North,-999,-999.0,-999.0,67,-99.99,,,-99.99,,2013-04-15 04:03:00,
2013-04-14 23:13:00,64.0,54.0,29.68,North,-999,-999.0,-999.0,68,-99.99,,,-99.99,,2013-04-15 04:13:00,
2013-04-14 23:23:00,64.0,54.0,29.68,North,-999,-999.0,-999.0,68,-99.99,,,-99.99,,2013-04-15 04:23:00,
2013-04-14 23:33:00,64.0,54.0,29.70,North,-999,-999.0,-999.0,71,-99.99,,,-99.99,,2013-04-15 04:33:00,
2013-04-14 23:43:00,63.0,55.0,29.71,North,-999,-999.0,-999.0,74,-99.99,,,-99.99,,2013-04-15 04:43:00,
2013-04-14 23:52:00,63.0,55.0,29.71,North,-999,-999.0,-999.0,74,-99.99,,,-99.99,,2013-04-15 04:52:00,